Versailles, OH

1:23 AM EDT on May 25, 2017 (GMT -0400)
Darke County

Weather History for KVES - July, 2013

Change the Weather History Date:

Sunday, July 7, 2013

  Actual Average (KDAY) Record (KDAY)
Temperature  
Mean Temperature 71 °F -  
Max Temperature 80 °F 85 °F 102 °F (2012)
Min Temperature 62 °F 63 °F 48 °F (1983)
Cooling Degree Days 6    
Growing Degree Days 21 (Base 50)    
Moisture  
Dew Point 67 °F    
Average Humidity 89    
Maximum Humidity 100    
Minimum Humidity 61    
Precipitation  
Precipitation 0.01 in - - ()
Sea Level Pressure  
Sea Level Pressure 30.09 in    
Wind  
Wind Speed 5 mph (SSW)    
Max Wind Speed 12 mph    
Max Gust Speed -    
Visibility 8 miles    
Events Rain    
Averages and records for this station are not official NWS values.
T = Trace of Precipitation, MM = Missing Value Source: NWS Daily Summary

Daily Weather History Graph

Daily Weather History Graph

Search for Another Location

Airport or City:

Trip Planner

Search our weather history database for the weather conditions in past years. The results will help you decide how hot, cold, wet, or windy it might be!

Date:

Astronomy

Jul. 07, 2013 Rise Set
Actual Time 6:15 AM EDT 9:10 PM EDT
Civil Twilight 5:43 AM EDT 9:42 PM EDT
Nautical Twilight 5:02 AM EDT 10:23 PM EDT
Astronomical Twilight 4:14 AM EDT 11:10 PM EDT
Moon 5:51 AM EDT (7/7) 8:33 PM EDT (7/7)
Length of Visible Light 15h 59m
Length of Day
14h 54m
Waning Crescent, 0% of the Moon is Illuminated
Jul 7
Waning Crescent
Jul 8
New
Jul 15
First Quarter
Jul 22
Full
Jul 29
Last Quarter

Hourly Weather History & Observations

Time (EDT) Temp. Heat Index Dew Point Humidity Pressure Visibility Wind Dir Wind Speed Gust Speed Precip Events Conditions
12:15 AM 66.2 °F - 66.2 °F 100% 30.12 in 10.0 mi SSW 5.8 mph - N/A   Clear
12:35 AM 66.2 °F - 66.2 °F 100% 30.11 in 10.0 mi SSW 8.1 mph - N/A   Mostly Cloudy
12:55 AM 66.2 °F - 66.2 °F 100% 30.11 in 10.0 mi SSW 6.9 mph - N/A   Overcast
1:15 AM 66.2 °F - 66.2 °F 100% 30.11 in 10.0 mi SSW 4.6 mph - N/A   Overcast
1:35 AM 66.2 °F - 66.2 °F 100% 30.10 in 10.0 mi SSW 4.6 mph - N/A   Scattered Clouds
1:55 AM 66.2 °F - 66.2 °F 100% 30.11 in 10.0 mi SSW 4.6 mph - N/A   Scattered Clouds
2:15 AM 66.2 °F - 66.2 °F 100% 30.10 in 10.0 mi SSW 3.5 mph - N/A   Mostly Cloudy
2:35 AM 64.4 °F - 64.4 °F 100% 30.09 in 10.0 mi SW 4.6 mph - N/A   Scattered Clouds
2:55 AM 64.4 °F - 64.4 °F 100% 30.09 in 7.0 mi SW 4.6 mph - N/A   Mostly Cloudy
3:15 AM 64.4 °F - 64.4 °F 100% 30.08 in 7.0 mi SW 5.8 mph - N/A   Overcast
3:35 AM 64.4 °F - 64.4 °F 100% 30.08 in 5.0 mi SSW 4.6 mph - N/A   Mostly Cloudy
3:55 AM 64.4 °F - 64.4 °F 100% 30.09 in 4.0 mi SSW 3.5 mph - N/A   Scattered Clouds
4:15 AM 64.4 °F - 64.4 °F 100% 30.08 in 4.0 mi Calm Calm - N/A   Scattered Clouds
4:35 AM 64.4 °F - 64.4 °F 100% 30.07 in 3.0 mi Calm Calm - N/A   Clear
4:55 AM 62.6 °F - 62.6 °F 100% 30.07 in 2.5 mi Calm Calm - N/A   Clear
5:15 AM 62.6 °F - 62.6 °F 100% 30.08 in 2.0 mi South 3.5 mph - N/A   Clear
5:35 AM 62.6 °F - 62.6 °F 100% 30.08 in 2.0 mi Calm Calm - N/A   Scattered Clouds
5:55 AM 62.6 °F - 62.6 °F 100% 30.09 in 1.8 mi Calm Calm - N/A   Overcast
6:15 AM 62.6 °F - 62.6 °F 100% 30.10 in 1.8 mi North - - N/A   Overcast
6:35 AM 64.4 °F - 64.4 °F 100% 30.09 in 2.0 mi North - - N/A   Overcast
6:55 AM 64.4 °F - 64.4 °F 100% 30.09 in 2.5 mi North - - N/A   Overcast
7:15 AM 64.4 °F - 64.4 °F 100% 30.09 in 2.5 mi North - - N/A   Overcast
7:35 AM 64.4 °F - 64.4 °F 100% 30.10 in 3.0 mi North - - N/A   Overcast
7:55 AM 64.4 °F - 64.4 °F 100% 30.10 in 5.0 mi North - - N/A   Overcast
8:15 AM 64.4 °F - 64.4 °F 100% 30.10 in 7.0 mi North - - N/A   Overcast
8:35 AM 66.2 °F - 64.4 °F 94% 30.11 in 7.0 mi North - - N/A   Overcast
8:55 AM 66.2 °F - 64.4 °F 94% 30.12 in 7.0 mi North - - N/A   Overcast
9:15 AM 66.2 °F - 66.2 °F 100% 30.12 in 7.0 mi West 5.8 mph - N/A   Overcast
9:35 AM 68.0 °F - 64.4 °F 88% 30.12 in 10.0 mi North - - N/A   Overcast
9:55 AM 68.0 °F - 66.2 °F 94% 30.14 in 7.0 mi North - - N/A   Overcast
10:15 AM 68.0 °F - 66.2 °F 94% 30.12 in 5.0 mi North - - N/A   Overcast
10:35 AM 68.0 °F - 66.2 °F 94% 30.13 in 7.0 mi North - - N/A   Overcast
10:55 AM 68.0 °F - 66.2 °F 94% 30.12 in 10.0 mi North - - N/A   Overcast
11:15 AM 69.8 °F - 68.0 °F 94% 30.12 in 10.0 mi North - - N/A   Overcast
11:35 AM 71.6 °F - 68.0 °F 88% 30.12 in 10.0 mi North - - N/A   Overcast
11:55 AM 71.6 °F - 68.0 °F 88% 30.12 in 10.0 mi SSW 5.8 mph - N/A   Overcast
12:15 PM 73.4 °F - 68.0 °F 83% 30.12 in 10.0 mi North - - N/A   Mostly Cloudy
12:35 PM 73.4 °F - 68.0 °F 83% 30.11 in 10.0 mi North - - N/A   Mostly Cloudy
12:55 PM 75.2 °F - 68.0 °F 78% 30.11 in 10.0 mi North - - N/A   Overcast
1:15 PM 75.2 °F - 68.0 °F 78% 30.11 in 10.0 mi Calm Calm - N/A   Mostly Cloudy
1:35 PM 75.2 °F - 69.8 °F 83% 30.11 in 10.0 mi SSE 8.1 mph - N/A   Mostly Cloudy
1:55 PM 75.2 °F - 68.0 °F 78% 30.10 in 10.0 mi SSE 8.1 mph - N/A   Mostly Cloudy
2:15 PM 75.2 °F - 68.0 °F 78% 30.10 in 10.0 mi South 8.1 mph - N/A   Mostly Cloudy
2:35 PM 77.0 °F - 68.0 °F 74% 30.09 in 10.0 mi South 6.9 mph - N/A   Mostly Cloudy
2:55 PM 77.0 °F - 68.0 °F 74% 30.09 in 10.0 mi South 5.8 mph - N/A   Mostly Cloudy
3:15 PM 73.4 °F - 68.0 °F 83% 30.09 in 10.0 mi SSW 5.8 mph - N/A   Mostly Cloudy
3:35 PM 77.0 °F - 69.8 °F 78% 30.08 in 10.0 mi SSW 4.6 mph - N/A   Scattered Clouds
3:55 PM 78.8 °F - 68.0 °F 69% 30.07 in 10.0 mi SSW 3.5 mph - N/A   Clear
4:15 PM 78.8 °F - 69.8 °F 74% 30.07 in 10.0 mi SW 6.9 mph - N/A   Scattered Clouds
4:35 PM 78.8 °F - 68.0 °F 69% 30.06 in 10.0 mi WSW 6.9 mph - N/A   Scattered Clouds
4:55 PM 80.6 °F 83.2 °F 68.0 °F 65% 30.06 in 10.0 mi SW 10.4 mph - N/A   Scattered Clouds
5:15 PM 77.0 °F - 64.4 °F 65% 30.05 in 10.0 mi SW 8.1 mph - N/A   Scattered Clouds
5:35 PM 78.8 °F - 68.0 °F 69% 30.05 in 10.0 mi WSW 8.1 mph - N/A   Scattered Clouds
5:55 PM 78.8 °F - 64.4 °F 61% 30.05 in 10.0 mi West 11.5 mph - N/A   Clear
6:15 PM 77.0 °F - 66.2 °F 69% 30.05 in 10.0 mi WSW 6.9 mph - N/A   Scattered Clouds
6:35 PM 77.0 °F - 68.0 °F 74% 30.05 in 10.0 mi WSW 9.2 mph - N/A   Scattered Clouds
6:55 PM 77.0 °F - 68.0 °F 74% 30.05 in 10.0 mi WSW 5.8 mph - N/A   Clear
7:15 PM 75.2 °F - 68.0 °F 78% 30.05 in 10.0 mi SW 5.8 mph - N/A   Clear
7:35 PM 75.2 °F - 68.0 °F 78% 30.06 in 10.0 mi SW 3.5 mph - N/A   Clear
7:55 PM 73.4 °F - 68.0 °F 83% 30.06 in 10.0 mi Calm Calm - N/A   Clear
8:15 PM 73.4 °F - 69.8 °F 88% 30.07 in 10.0 mi Calm Calm - N/A   Scattered Clouds
8:35 PM 73.4 °F - 68.0 °F 83% 30.07 in 10.0 mi Calm Calm - N/A   Scattered Clouds
8:55 PM 73.4 °F - 69.8 °F 88% 30.07 in 10.0 mi Calm Calm - N/A Rain Light Rain
9:15 PM 71.6 °F - 69.8 °F 94% 30.07 in 10.0 mi Calm Calm - 0.01 in Rain Light Rain
9:35 PM 71.6 °F - 69.8 °F 94% 30.08 in 7.0 mi Calm Calm - 0.01 in   Mostly Cloudy
9:55 PM 71.6 °F - 69.8 °F 94% 30.08 in 7.0 mi Calm Calm - 0.01 in   Scattered Clouds
10:15 PM 69.8 °F - 69.8 °F 100% 30.09 in 7.0 mi Calm Calm - N/A   Scattered Clouds
10:35 PM 69.8 °F - 69.8 °F 100% 30.09 in 10.0 mi Calm Calm - N/A   Mostly Cloudy
10:55 PM 69.8 °F - 68.0 °F 94% 30.09 in 10.0 mi Calm Calm - N/A   Mostly Cloudy
11:15 PM 69.8 °F - 68.0 °F 94% 30.09 in 10.0 mi Calm Calm - N/A   Scattered Clouds
11:35 PM 69.8 °F - 68.0 °F 94% 30.09 in 10.0 mi South 3.5 mph - N/A   Mostly Cloudy
11:55 PM 69.8 °F - 68.0 °F 94% 30.09 in 10.0 mi Calm Calm - N/A   Overcast